Regional Weather Roundup
Issued by NWS

Home | Current Version | Previous Version | Graphics & Text | Print | Product List | Glossary On
Versions: 1 2 3 4 5 6 7 8 9 10 11 12 13 14 15 16 17 18 19 20 21 22 23 24 25 26 27 28 29 30 31 32 33 34 35 36 37 38 39 40 41 42 43 44 45 46 47 48 49 50
000
ASUS45 KCYS 291710
RWRWY

WYOMING REGIONAL WEATHER ROUNDUP
NATIONAL WEATHER SERVICE CHEYENNE WY
1100 AM MDT WED JUL 29 2015

NOTE:  "FAIR" INDICATES FEW OR NO CLOUDS BELOW 12,000 FEET
WITH NO SIGNIFICANT WEATHER AND/OR OBSTRUCTIONS TO VISIBILITY.

WYZ001-291800-
YELLOWSTONE NATIONAL PARK

CITY           SKY/WX    TMP DP  RH WIND       PRES   REMARKS
LK YELLOWSTONE   N/A     54  36  50 E6        30.50F
W YELLOWSTONE  NOT AVBL

$$
WYZ002>013-054>058-071-098>099-291800-
NORTHERN WYOMING

CITY           SKY/WX    TMP DP  RH WIND       PRES   REMARKS
JACKSON        FAIR      57  36  44 CALM      30.45S
CODY           FAIR      70  32  24 S10G16    30.33F
GREYBULL       FAIR      71  32  23 VRB3      30.30F
WORLAND        FAIR      72  33  24 VRB5      30.31F
SHERIDAN       FAIR      73  33  23 CALM      30.27F
BUFFALO        FAIR      71  34  25 SE12      30.32F
GILLETTE       FAIR      71  33  24 SW9       30.31S
HULETT         FAIR      72  37  28 NW10      30.30F
NEWCASTLE      FAIR      70  34  26 S5        30.32F

$$
WYZ014>020-022>026-101>103-291800-
CENTRAL WYOMING

CITY           SKY/WX    TMP DP  RH WIND       PRES   REMARKS
BIG PINEY      FAIR      62  29  28 VRB5      30.45S
PINEDALE       FAIR      61  23  23 CALM      30.45F
DUBOIS         FAIR      64  27  24 N10G17    30.41F
LANDER         FAIR      68  31  25 N6        30.36F
RIVERTON       FAIR      67  34  29 MISG      30.37F
CASPER         FAIR      68  30  24 VRB3      30.35F
DOUGLAS        FAIR      71  34  25 SE10      30.35F

$$
WYZ021-027>030-104>119-291800-
SOUTHERN WYOMING

CITY           SKY/WX    TMP DP  RH WIND       PRES   REMARKS
EVANSTON       FAIR      64  26  23 VRB3      30.44F
KEMMERER       FAIR      61  28  29 CALM      30.46F
FORT BRIDGER   SUNNY     64  28  25 CALM      30.47F
ROCK SPRINGS   FAIR      62  28  27 VRB3      30.44S
DIXON          FAIR      67  26  20 SW3       30.43S
RAWLINS        FAIR      67  26  21 NW3       30.42S
SARATOGA       FAIR      64  32  29 N3        30.43S
LARAMIE        FAIR      71  40  32 VRB5      30.41R
CHEYENNE       FAIR      70  45  40 W5        30.37F
TORRINGTON     FAIR      73  46  38 S10       30.30F
PINE BLUFFS    FAIR      73  43  33 S9G17     30.33S

$$


USA.gov is the U.S. government's official web portal to all federal, state and local government web resources and services.